Location: Kunchanapalle
(16.4623°N, 80.6176°E)
Time: 17:40:08
(UTC+00:00)

Cosmos 494 Rocket - Pass Details

Date: 13 August 2020
Orbit: 742 x 771 km, 74.1° (Epoch: 19 September)

Event Time Altitude Azimuth Distance (km) Brightness Sun altitude
Rises 22:25:57 0° 350° (N) 3,203 7.4 -26.8°
Reaches altitude 10° 22:28:19 10° 353° (N) 2,281 6.6 -26.3°
Maximum altitude 22:33:28 70° 76° (ENE) 810 4.2 -25.2°
Drops below altitude 10° 22:38:39 10° 160° (SSE) 2,296 6.4 -24.0°
Sets 22:41:02 0° 162° (SSE) 3,224 7.2 -23.5°
